SL-14 R/B, 16720

Orbit data source: Space-Track

SL-14 R/B, 16720 is space debris in LEO originally from a launch on Thu, 15 May 1986 UTC launched from the Plesetsk Missile And Space Complex (PKMTR). Debris objects in space refer to the collection of defunct objects orbiting the Earth. Examples of debris include non-operational satellites, rocket bodies, and fragments generated from explosions, collisions, or faulty payload assembly.

Loading next visibility...
Identifier
16720, 1986-034B
Orbit
LEO
Country
Flag of CISCIS
Related business
Manufacturer
Yuzhnoe
Mission
Spacecraft
Bus & Motor
S5M, Unknown motor
Mass
1,600 kg wet, 1,600 kg dry
Launch date (UTC)
1986-05-15 (39 years ago)
Launch vehicle
Unknown
Launch site
Plesetsk Missile And Space Complex (PKMTR)
Object type
Payload
Rocket body
Debris
Shape & HBR
Cyl, 1.4 m
Radar Cross Section
7.351 m², Large (>1 m²)

Expand to show TLE details & history
Last TLE update: 4 hours ago

TLE from 4 hours ago
0 SL-14 R/B
1 16720U 86034B   25303.85160668  .00000802  00000-0  89812-4 0  9992
2 16720  82.5511 268.5038 0021011  86.5037 290.1439 14.85492547111590
Epoch: 2025-10-30T20:26Z
TLE epoch observation values (Epoch: 2025-10-30T20:26:18.817Z)
Latitude
16.26058°
Longitude
-75.30545°
Altitude
609.388 km
Speed
7.559 km/s
True Right ascension
18h 02m 42s
True Declination
16° 09' 59"
Sunlit
Object was in daylight at epoch
Visualization orbit readout
Latitude
Unknown
Longitude
Unknown
Altitude
Unknown
Speed
Unknown
Apparent Right ascension
Unknown
Apparent Declination
Unknown
Sunlit
N/A
Visualization observer readout
Local Sidereal Time
20:29:21
Azimuth
Unknown
Elevation
Unknown
Doppler factor
Unknown
Orbital elements
Apogee altitude
623.735 km
Perigee altitude
594.373 km
Semi-major axis
6,987.191 km
Eccentricity
0.0021
Inclination
82.5511°
RAAN
268.5038°
Arg. of periapsis
86.5037°
True anomaly
289.91766°
Mean anomaly
290.1439°
Eccentric anomaly
290.0308°
Mean motion
3.71612 °/min
Orbital period
96.88 mins
BSTAR
0.000089812
Loading maneuver chart data...
Computing Atmospheric mass density...
Loading historical data...
Loading historical data...
Loading historical data...
Loading historical data...
Loading historical data...
Loading historical data...
Loading historical data...
Other satellites on launch #34 in the year 1986 (1986-05-15 UTC)

Documentation

Showing up to 5 results
|